Year,Month,Day,Hour,Minute,Value (Times are PST for temperature in C)
2016,05,02,00,00,13.80
2016,05,02,00,01,13.80
2016,05,02,00,02,13.80
2016,05,02,00,03,13.80
2016,05,02,00,04,13.80
2016,05,02,00,05,13.70
2016,05,02,00,06,13.80
2016,05,02,00,07,13.70
2016,05,02,00,08,13.80
2016,05,02,00,09,13.80
2016,05,02,00,10,13.80
2016,05,02,00,11,13.80
2016,05,02,00,12,13.80
2016,05,02,00,13,13.80
2016,05,02,00,14,13.80
2016,05,02,00,15,13.90
2016,05,02,00,16,13.90
2016,05,02,00,17,13.90
2016,05,02,00,18,13.90
2016,05,02,00,19,14.00
2016,05,02,00,20,14.00
2016,05,02,00,21,14.10
2016,05,02,00,22,14.10
2016,05,02,00,23,14.10
2016,05,02,00,24,14.10
2016,05,02,00,25,14.20
2016,05,02,00,26,14.20
2016,05,02,00,27,14.20
2016,05,02,00,28,14.20
2016,05,02,00,29,14.20
2016,05,02,00,30,14.20
2016,05,02,00,31,14.20
2016,05,02,00,32,14.20
2016,05,02,00,33,14.20
2016,05,02,00,34,14.20
2016,05,02,00,35,14.20
2016,05,02,00,36,14.20
2016,05,02,00,37,14.20
2016,05,02,00,38,14.20
2016,05,02,00,39,14.20
2016,05,02,00,40,14.20
2016,05,02,00,41,14.10
2016,05,02,00,42,14.10
2016,05,02,00,43,14.10
2016,05,02,00,44,14.00
2016,05,02,00,45,14.00
2016,05,02,00,46,14.00
2016,05,02,00,47,14.00
2016,05,02,00,48,13.90
2016,05,02,00,49,13.90
2016,05,02,00,50,13.90
2016,05,02,00,51,13.90
2016,05,02,00,52,13.90
2016,05,02,00,53,13.90
2016,05,02,00,54,14.00
2016,05,02,00,55,14.00
2016,05,02,00,56,14.00
2016,05,02,00,57,14.00
2016,05,02,00,58,14.00
2016,05,02,00,59,14.10
2016,05,02,01,00,14.10
2016,05,02,01,01,14.10
2016,05,02,01,02,14.00
2016,05,02,01,03,14.10
2016,05,02,01,04,14.10
2016,05,02,01,05,14.10
2016,05,02,01,06,14.10
2016,05,02,01,07,14.10
2016,05,02,01,08,14.10
2016,05,02,01,09,14.10
2016,05,02,01,10,14.10
2016,05,02,01,11,14.10
2016,05,02,01,12,14.10
2016,05,02,01,13,14.10
2016,05,02,01,14,14.10
2016,05,02,01,15,14.10
2016,05,02,01,16,14.20
2016,05,02,01,17,14.20
2016,05,02,01,18,14.20
2016,05,02,01,19,14.20
2016,05,02,01,20,14.20
2016,05,02,01,21,14.20
2016,05,02,01,22,14.20
2016,05,02,01,23,14.20
2016,05,02,01,24,14.20
2016,05,02,01,25,14.20
2016,05,02,01,26,14.20
2016,05,02,01,27,14.20
2016,05,02,01,28,14.20
2016,05,02,01,29,14.20
2016,05,02,01,30,14.20
2016,05,02,01,31,14.20
2016,05,02,01,32,14.20
2016,05,02,01,33,14.20
2016,05,02,01,34,14.20
2016,05,02,01,35,14.20
2016,05,02,01,36,14.20
2016,05,02,01,37,14.10
2016,05,02,01,38,14.10
2016,05,02,01,39,14.10
2016,05,02,01,40,14.10
2016,05,02,01,41,14.10
2016,05,02,01,42,14.10
2016,05,02,01,43,14.10
2016,05,02,01,44,14.00
2016,05,02,01,45,14.00
2016,05,02,01,46,14.00
2016,05,02,01,47,14.00
2016,05,02,01,48,14.00
2016,05,02,01,49,13.90
2016,05,02,01,50,13.90
2016,05,02,01,51,13.90
2016,05,02,01,52,13.90
2016,05,02,01,53,13.90
2016,05,02,01,54,13.90
2016,05,02,01,55,13.90
2016,05,02,01,56,13.80
2016,05,02,01,57,13.80
2016,05,02,01,58,13.80
2016,05,02,01,59,13.80
2016,05,02,02,00,13.80
2016,05,02,02,01,13.80
2016,05,02,02,02,13.80
2016,05,02,02,03,13.80
2016,05,02,02,04,13.80
2016,05,02,02,05,13.80
2016,05,02,02,06,13.80
2016,05,02,02,07,13.80
2016,05,02,02,08,13.80
2016,05,02,02,09,13.80
2016,05,02,02,10,13.80
2016,05,02,02,11,13.80
2016,05,02,02,12,13.80
2016,05,02,02,13,13.80
2016,05,02,02,14,13.80
2016,05,02,02,15,13.80
2016,05,02,02,16,13.80
2016,05,02,02,17,13.70
2016,05,02,02,18,13.70
2016,05,02,02,19,13.70
2016,05,02,02,20,13.70
2016,05,02,02,21,13.70
2016,05,02,02,22,13.70
2016,05,02,02,23,13.70
2016,05,02,02,24,13.70
2016,05,02,02,25,13.70
2016,05,02,02,26,13.70
2016,05,02,02,27,13.70
2016,05,02,02,28,13.70
2016,05,02,02,29,13.70
2016,05,02,02,30,13.70
2016,05,02,02,31,13.70
2016,05,02,02,32,13.70
2016,05,02,02,33,13.70
2016,05,02,02,34,13.70
2016,05,02,02,35,13.70
2016,05,02,02,36,13.70
2016,05,02,02,37,13.70
2016,05,02,02,38,13.70
2016,05,02,02,39,13.60
2016,05,02,02,40,13.60
2016,05,02,02,41,13.60
2016,05,02,02,42,13.60
2016,05,02,02,43,13.50
2016,05,02,02,44,13.50
2016,05,02,02,45,13.50
2016,05,02,02,46,13.40
2016,05,02,02,47,13.40
2016,05,02,02,48,13.40
2016,05,02,02,49,13.40
2016,05,02,02,50,13.40
2016,05,02,02,51,13.40
2016,05,02,02,52,13.40
2016,05,02,02,53,13.40
2016,05,02,02,54,13.30
2016,05,02,02,55,13.30
2016,05,02,02,56,13.30
2016,05,02,02,57,13.30
2016,05,02,02,58,13.30
2016,05,02,02,59,13.20
2016,05,02,03,00,13.20
2016,05,02,03,01,13.20
2016,05,02,03,02,13.20
2016,05,02,03,03,13.20
2016,05,02,03,04,13.20
2016,05,02,03,05,13.20
2016,05,02,03,06,13.20
2016,05,02,03,07,13.20
2016,05,02,03,08,13.20
2016,05,02,03,09,13.20
2016,05,02,03,10,13.20
2016,05,02,03,11,13.20
2016,05,02,03,12,13.20
2016,05,02,03,13,13.20
2016,05,02,03,14,13.20
2016,05,02,03,15,13.10
2016,05,02,03,16,13.10
2016,05,02,03,17,13.10
2016,05,02,03,18,13.10
2016,05,02,03,19,13.00
2016,05,02,03,20,13.00
2016,05,02,03,21,12.90
2016,05,02,03,22,12.90
2016,05,02,03,23,12.90
2016,05,02,03,24,12.80
2016,05,02,03,25,12.80
2016,05,02,03,26,12.80
2016,05,02,03,27,12.70
2016,05,02,03,28,12.70
2016,05,02,03,29,12.70
2016,05,02,03,30,12.70
2016,05,02,03,31,12.60
2016,05,02,03,32,12.60
2016,05,02,03,33,12.60
2016,05,02,03,34,12.60
2016,05,02,03,35,12.50
2016,05,02,03,36,12.50
2016,05,02,03,37,12.50
2016,05,02,03,38,12.40
2016,05,02,03,39,12.40
2016,05,02,03,40,12.40
2016,05,02,03,41,12.40
2016,05,02,03,42,12.30
2016,05,02,03,43,12.30
2016,05,02,03,44,12.30
2016,05,02,03,45,12.30
2016,05,02,03,46,12.30
2016,05,02,03,47,12.30
2016,05,02,03,48,12.30
2016,05,02,03,49,12.30
2016,05,02,03,50,12.30
2016,05,02,03,51,12.30
2016,05,02,03,52,12.30
2016,05,02,03,53,12.30
2016,05,02,03,54,12.30
2016,05,02,03,55,12.30
2016,05,02,03,56,12.30
2016,05,02,03,57,12.30
2016,05,02,03,58,12.30
2016,05,02,03,59,12.40
2016,05,02,04,00,12.40
2016,05,02,04,01,12.40
2016,05,02,04,02,12.40
2016,05,02,04,03,12.40
2016,05,02,04,04,12.40
2016,05,02,04,05,12.40
2016,05,02,04,06,12.50
2016,05,02,04,07,12.50
2016,05,02,04,08,12.50
2016,05,02,04,09,12.50
2016,05,02,04,10,12.50
2016,05,02,04,11,12.50
2016,05,02,04,12,12.50
2016,05,02,04,13,12.50
2016,05,02,04,14,12.50
2016,05,02,04,15,12.50
2016,05,02,04,16,12.50
2016,05,02,04,17,12.50
2016,05,02,04,18,12.50
2016,05,02,04,19,12.40
2016,05,02,04,20,12.40
2016,05,02,04,21,12.40
2016,05,02,04,22,12.40
2016,05,02,04,23,12.30
2016,05,02,04,24,12.30
2016,05,02,04,25,12.30
2016,05,02,04,26,12.30
2016,05,02,04,27,12.30
2016,05,02,04,28,12.30
2016,05,02,04,29,12.30
2016,05,02,04,30,12.30
2016,05,02,04,31,12.30
2016,05,02,04,32,12.30
2016,05,02,04,33,12.30
2016,05,02,04,34,12.30
2016,05,02,04,35,12.40
2016,05,02,04,36,12.40
2016,05,02,04,37,12.40
2016,05,02,04,38,12.40
2016,05,02,04,39,12.40
2016,05,02,04,40,12.40
2016,05,02,04,41,12.50
2016,05,02,04,42,12.50
2016,05,02,04,43,12.50
2016,05,02,04,44,12.50
2016,05,02,04,45,12.60
2016,05,02,04,46,12.60
2016,05,02,04,47,12.60
2016,05,02,04,48,12.60
2016,05,02,04,49,12.60
2016,05,02,04,50,12.60
2016,05,02,04,51,12.60
2016,05,02,04,52,12.60
2016,05,02,04,53,12.70
2016,05,02,04,54,12.70
2016,05,02,04,55,12.70
2016,05,02,04,56,12.70
2016,05,02,04,57,12.70
2016,05,02,04,58,12.70
2016,05,02,04,59,12.70
2016,05,02,05,00,12.70
2016,05,02,05,01,12.70
2016,05,02,05,02,12.70
2016,05,02,05,03,12.70
2016,05,02,05,04,12.70
2016,05,02,05,05,12.70
2016,05,02,05,06,12.70
2016,05,02,05,07,12.70
2016,05,02,05,08,12.70
2016,05,02,05,09,12.70
2016,05,02,05,10,12.70
2016,05,02,05,11,12.70
2016,05,02,05,12,12.70
2016,05,02,05,13,12.60
2016,05,02,05,14,12.60
2016,05,02,05,15,12.60
2016,05,02,05,16,12.60
2016,05,02,05,17,12.60
2016,05,02,05,18,12.60
2016,05,02,05,19,12.50
2016,05,02,05,20,12.50
2016,05,02,05,21,12.50
2016,05,02,05,22,12.50
2016,05,02,05,23,12.50
2016,05,02,05,24,12.50
2016,05,02,05,25,12.50
2016,05,02,05,26,12.50
2016,05,02,05,27,12.50
2016,05,02,05,28,12.60
2016,05,02,05,29,12.60
2016,05,02,05,30,12.60
2016,05,02,05,31,12.60
2016,05,02,05,32,12.60
2016,05,02,05,33,12.60
2016,05,02,05,34,12.60
2016,05,02,05,35,12.60
2016,05,02,05,36,12.60
2016,05,02,05,37,12.60
2016,05,02,05,38,12.60
2016,05,02,05,39,12.60
2016,05,02,05,40,12.50
2016,05,02,05,41,12.50
2016,05,02,05,42,12.50
2016,05,02,05,43,12.50
2016,05,02,05,44,12.50
2016,05,02,05,45,12.50
2016,05,02,05,46,12.50
2016,05,02,05,47,12.60
2016,05,02,05,48,12.60
2016,05,02,05,49,12.60
2016,05,02,05,50,12.50
2016,05,02,05,51,12.50
2016,05,02,05,52,12.50
2016,05,02,05,53,12.50
2016,05,02,05,54,12.50
2016,05,02,05,55,12.60
2016,05,02,05,56,12.60
2016,05,02,05,57,12.60
2016,05,02,05,58,12.60
2016,05,02,05,59,12.60
2016,05,02,06,00,12.60
2016,05,02,06,01,12.60
2016,05,02,06,02,12.70
2016,05,02,06,03,12.70
2016,05,02,06,04,12.70
2016,05,02,06,05,12.70
2016,05,02,06,06,12.70
2016,05,02,06,07,12.70
2016,05,02,06,08,12.70
2016,05,02,06,09,12.60
2016,05,02,06,10,12.60
2016,05,02,06,11,12.60
2016,05,02,06,12,12.60
2016,05,02,06,13,12.60
2016,05,02,06,14,12.60
2016,05,02,06,15,12.60
2016,05,02,06,16,12.60
2016,05,02,06,17,12.60
2016,05,02,06,18,12.60
2016,05,02,06,19,12.60
2016,05,02,06,20,12.60
2016,05,02,06,21,12.60
2016,05,02,06,22,12.60
2016,05,02,06,23,12.60
2016,05,02,06,24,12.60
2016,05,02,06,25,12.60
2016,05,02,06,26,12.60
2016,05,02,06,27,12.70
2016,05,02,06,28,12.70
2016,05,02,06,29,12.80
2016,05,02,06,30,12.80
2016,05,02,06,31,12.80
2016,05,02,06,32,12.80
2016,05,02,06,33,12.90
2016,05,02,06,34,12.90
2016,05,02,06,35,12.90
2016,05,02,06,36,12.90
2016,05,02,06,37,13.00
2016,05,02,06,38,13.00
2016,05,02,06,39,13.00
2016,05,02,06,40,13.10
2016,05,02,06,41,13.10
2016,05,02,06,42,13.10
2016,05,02,06,43,13.20
2016,05,02,06,44,13.20
2016,05,02,06,45,13.20
2016,05,02,06,46,13.30
2016,05,02,06,47,13.40
2016,05,02,06,48,13.40
2016,05,02,06,49,13.50
2016,05,02,06,50,13.60
2016,05,02,06,51,13.70
2016,05,02,06,52,13.80
2016,05,02,06,53,13.80
2016,05,02,06,54,13.90
2016,05,02,06,55,14.00
2016,05,02,06,56,14.10
2016,05,02,06,57,14.20
2016,05,02,06,58,14.20
2016,05,02,06,59,14.30
2016,05,02,07,00,14.40
2016,05,02,07,01,14.40
2016,05,02,07,02,14.50
2016,05,02,07,03,14.60
2016,05,02,07,04,14.70
2016,05,02,07,05,14.70
2016,05,02,07,06,14.80
2016,05,02,07,07,14.90
2016,05,02,07,08,14.90
2016,05,02,07,09,15.00
2016,05,02,07,10,15.10
2016,05,02,07,11,15.20
2016,05,02,07,12,15.20
2016,05,02,07,13,15.30
2016,05,02,07,14,15.30
2016,05,02,07,15,15.40
2016,05,02,07,16,15.40
2016,05,02,07,17,15.50
2016,05,02,07,18,15.50
2016,05,02,07,19,15.60
2016,05,02,07,20,15.70
2016,05,02,07,21,15.70
2016,05,02,07,22,15.80
2016,05,02,07,23,15.90
2016,05,02,07,24,15.90
2016,05,02,07,25,16.00
2016,05,02,07,26,16.00
2016,05,02,07,27,16.10
2016,05,02,07,28,16.20
2016,05,02,07,29,16.20
2016,05,02,07,30,16.30
2016,05,02,07,31,16.30
2016,05,02,07,32,16.40
2016,05,02,07,33,16.40
2016,05,02,07,34,16.40
2016,05,02,07,35,16.50
2016,05,02,07,36,16.60
2016,05,02,07,37,16.60
2016,05,02,07,38,16.70
2016,05,02,07,39,16.70
2016,05,02,07,40,16.80
2016,05,02,07,41,16.80
2016,05,02,07,42,16.90
2016,05,02,07,43,16.90
2016,05,02,07,44,17.00
2016,05,02,07,45,17.00
2016,05,02,07,46,17.10
2016,05,02,07,47,17.20
2016,05,02,07,48,17.20
2016,05,02,07,49,17.30
2016,05,02,07,50,17.30
2016,05,02,07,51,17.40
2016,05,02,07,52,17.40
2016,05,02,07,53,17.50
2016,05,02,07,54,17.50
2016,05,02,07,55,17.50
2016,05,02,07,56,17.60
2016,05,02,07,57,17.60
2016,05,02,07,58,17.70
2016,05,02,07,59,17.70
2016,05,02,08,00,17.70
2016,05,02,08,01,17.80
2016,05,02,08,02,17.80
2016,05,02,08,03,17.80
2016,05,02,08,04,17.80
2016,05,02,08,05,17.90
2016,05,02,08,06,17.90
2016,05,02,08,07,18.00
2016,05,02,08,08,18.00
2016,05,02,08,09,18.10
2016,05,02,08,10,18.10
2016,05,02,08,11,18.20
2016,05,02,08,12,18.20
2016,05,02,08,13,18.30
2016,05,02,08,14,18.30
2016,05,02,08,15,18.40
2016,05,02,08,16,18.40
2016,05,02,08,17,18.50
2016,05,02,08,18,18.50
2016,05,02,08,19,18.60
2016,05,02,08,20,18.60
2016,05,02,08,21,18.60
2016,05,02,08,22,18.70
2016,05,02,08,23,18.70
2016,05,02,08,24,18.70
2016,05,02,08,25,18.70
2016,05,02,08,26,18.80
2016,05,02,08,27,18.80
2016,05,02,08,28,18.80
2016,05,02,08,29,18.80
2016,05,02,08,30,18.80
2016,05,02,08,31,18.90
2016,05,02,08,32,18.90
2016,05,02,08,33,18.90
2016,05,02,08,34,18.90
2016,05,02,08,35,18.90
2016,05,02,08,36,18.90
2016,05,02,08,37,18.90
2016,05,02,08,38,19.00
2016,05,02,08,39,19.00
2016,05,02,08,40,19.10
2016,05,02,08,41,19.10
2016,05,02,08,42,19.10
2016,05,02,08,43,19.10
2016,05,02,08,44,19.20
2016,05,02,08,45,19.20
2016,05,02,08,46,19.20
2016,05,02,08,47,19.20
2016,05,02,08,48,19.20
2016,05,02,08,49,19.30
2016,05,02,08,50,19.30
2016,05,02,08,51,19.30
2016,05,02,08,52,19.30
2016,05,02,08,53,19.30
2016,05,02,08,54,19.30
2016,05,02,08,55,19.40
2016,05,02,08,56,19.40
2016,05,02,08,57,19.40
2016,05,02,08,58,19.40
2016,05,02,08,59,19.40
2016,05,02,09,00,19.40
2016,05,02,09,01,19.40
2016,05,02,09,02,19.40
2016,05,02,09,03,19.40
2016,05,02,09,04,19.50
2016,05,02,09,05,19.50
2016,05,02,09,06,19.50
2016,05,02,09,07,19.50
2016,05,02,09,08,19.50
2016,05,02,09,09,19.50
2016,05,02,09,10,19.50
2016,05,02,09,11,19.50
2016,05,02,09,12,19.50
2016,05,02,09,13,19.50
2016,05,02,09,14,19.50
2016,05,02,09,15,19.50
2016,05,02,09,16,19.50
2016,05,02,09,17,19.50
2016,05,02,09,18,19.60
2016,05,02,09,19,19.60
2016,05,02,09,20,19.60
2016,05,02,09,21,19.70
2016,05,02,09,22,19.80
2016,05,02,09,23,19.80
2016,05,02,09,24,19.80
2016,05,02,09,25,19.90
2016,05,02,09,26,19.90
2016,05,02,09,27,20.00
2016,05,02,09,28,20.00
2016,05,02,09,29,20.10
2016,05,02,09,30,20.20
2016,05,02,09,31,20.20
2016,05,02,09,32,20.20
2016,05,02,09,33,20.30
2016,05,02,09,34,20.30
2016,05,02,09,35,20.40
2016,05,02,09,36,20.50
2016,05,02,09,37,20.60
2016,05,02,09,38,20.60
2016,05,02,09,39,20.70
2016,05,02,09,40,20.70
2016,05,02,09,41,20.80
2016,05,02,09,42,20.80
2016,05,02,09,43,20.90
2016,05,02,09,44,20.90
2016,05,02,09,45,20.90
2016,05,02,09,46,20.90
2016,05,02,09,47,21.00
2016,05,02,09,48,21.00
2016,05,02,09,49,21.00
2016,05,02,09,50,21.10
2016,05,02,09,51,21.10
2016,05,02,09,52,21.20
2016,05,02,09,53,21.20
2016,05,02,09,54,21.20
2016,05,02,09,55,21.20
2016,05,02,09,56,21.20
2016,05,02,09,57,21.20
2016,05,02,09,58,21.20
2016,05,02,09,59,21.20
2016,05,02,10,00,21.20
2016,05,02,10,01,21.30
2016,05,02,10,02,21.30
2016,05,02,10,03,21.30
2016,05,02,10,04,21.40
2016,05,02,10,05,21.40
2016,05,02,10,06,21.40
2016,05,02,10,07,21.40
2016,05,02,10,08,21.40
2016,05,02,10,09,21.40
2016,05,02,10,10,21.50
2016,05,02,10,11,21.50
2016,05,02,10,12,21.50
2016,05,02,10,13,21.50
2016,05,02,10,14,21.50
2016,05,02,10,15,21.50
2016,05,02,10,16,21.60
2016,05,02,10,17,21.60
2016,05,02,10,18,21.60
2016,05,02,10,19,21.70
2016,05,02,10,20,21.70
2016,05,02,10,21,21.80
2016,05,02,10,22,21.80
2016,05,02,10,23,21.80
2016,05,02,10,24,21.90
2016,05,02,10,25,21.90
2016,05,02,10,26,21.90
2016,05,02,10,27,21.90
2016,05,02,10,28,22.00
2016,05,02,10,29,22.00
2016,05,02,10,30,22.10
2016,05,02,10,31,22.10
2016,05,02,10,32,22.10
2016,05,02,10,33,22.10
2016,05,02,10,34,22.10
2016,05,02,10,35,22.10
2016,05,02,10,36,22.10
2016,05,02,10,37,22.20
2016,05,02,10,38,22.20
2016,05,02,10,39,22.20
2016,05,02,10,40,22.20
2016,05,02,10,41,22.30
2016,05,02,10,42,22.30
2016,05,02,10,43,22.30
2016,05,02,10,44,22.40
2016,05,02,10,45,22.40
2016,05,02,10,46,22.50
2016,05,02,10,47,22.60
2016,05,02,10,48,22.60
2016,05,02,10,49,22.70
2016,05,02,10,50,22.70
2016,05,02,10,51,22.80
2016,05,02,10,52,22.80
2016,05,02,10,53,22.90
2016,05,02,10,54,23.00
2016,05,02,10,55,23.00
2016,05,02,10,56,23.10
2016,05,02,10,57,23.10
2016,05,02,10,58,23.10
2016,05,02,10,59,23.10
2016,05,02,11,00,23.10
2016,05,02,11,01,23.10
2016,05,02,11,02,23.10
2016,05,02,11,03,23.10
2016,05,02,11,04,23.10
2016,05,02,11,05,23.10
2016,05,02,11,06,23.10
2016,05,02,11,07,23.10
2016,05,02,11,08,23.20
2016,05,02,11,09,23.20
2016,05,02,11,10,23.20
2016,05,02,11,11,23.30
2016,05,02,11,12,23.30
2016,05,02,11,13,23.30
2016,05,02,11,14,23.40
2016,05,02,11,15,23.50
2016,05,02,11,16,23.50
2016,05,02,11,17,23.60
2016,05,02,11,18,23.60
2016,05,02,11,19,23.70
2016,05,02,11,20,23.70
2016,05,02,11,21,23.70
2016,05,02,11,22,23.70
2016,05,02,11,23,23.70
2016,05,02,11,24,23.70
2016,05,02,11,25,23.90
2016,05,02,11,26,24.00
2016,05,02,11,27,24.10
2016,05,02,11,28,24.20
2016,05,02,11,29,24.30
2016,05,02,11,30,24.30
2016,05,02,11,31,24.40
2016,05,02,11,32,24.50
2016,05,02,11,33,24.60
2016,05,02,11,34,24.60
2016,05,02,11,35,24.60
2016,05,02,11,36,24.50
2016,05,02,11,37,24.50
2016,05,02,11,38,24.50
2016,05,02,11,39,24.50
2016,05,02,11,40,24.40
2016,05,02,11,41,24.40
2016,05,02,11,42,24.40
2016,05,02,11,43,24.40
2016,05,02,11,44,24.40
2016,05,02,11,45,24.40
2016,05,02,11,46,24.40
2016,05,02,11,47,24.30
2016,05,02,11,48,24.30
2016,05,02,11,49,24.20
2016,05,02,11,50,24.20
2016,05,02,11,51,24.20
2016,05,02,11,52,24.20
2016,05,02,11,53,24.20
2016,05,02,11,54,24.10
2016,05,02,11,55,24.20
2016,05,02,11,56,24.20
2016,05,02,11,57,24.20
2016,05,02,11,58,24.30
2016,05,02,11,59,24.30
2016,05,02,12,00,24.40
2016,05,02,12,01,24.50
2016,05,02,12,02,24.60
2016,05,02,12,03,24.60
2016,05,02,12,04,24.70
2016,05,02,12,05,24.70
2016,05,02,12,06,24.70
2016,05,02,12,07,24.70
2016,05,02,12,08,24.70
2016,05,02,12,09,24.70
2016,05,02,12,10,24.70
2016,05,02,12,11,24.70
2016,05,02,12,12,24.70
2016,05,02,12,13,24.70
2016,05,02,12,14,24.70
2016,05,02,12,15,24.70
2016,05,02,12,16,24.70
2016,05,02,12,17,24.70
2016,05,02,12,18,24.60
2016,05,02,12,19,24.60
2016,05,02,12,20,24.60
2016,05,02,12,21,24.60
2016,05,02,12,22,24.60
2016,05,02,12,23,24.60
2016,05,02,12,24,24.50
2016,05,02,12,25,24.60
2016,05,02,12,26,24.60
2016,05,02,12,27,24.60
2016,05,02,12,28,24.60
2016,05,02,12,29,24.70
2016,05,02,12,30,24.70
2016,05,02,12,31,24.80
2016,05,02,12,32,24.80
2016,05,02,12,33,24.90
2016,05,02,12,34,24.90
2016,05,02,12,35,24.90
2016,05,02,12,36,24.90
2016,05,02,12,37,25.00
2016,05,02,12,38,25.00
2016,05,02,12,39,25.10
2016,05,02,12,40,25.10
2016,05,02,12,41,25.10
2016,05,02,12,42,25.10
2016,05,02,12,43,25.20
2016,05,02,12,44,25.20
2016,05,02,12,45,25.30
2016,05,02,12,46,25.30
2016,05,02,12,47,25.30
2016,05,02,12,48,25.30
2016,05,02,12,49,25.40
2016,05,02,12,50,25.40
2016,05,02,12,51,25.50
2016,05,02,12,52,25.50
2016,05,02,12,53,25.50
2016,05,02,12,54,25.60
2016,05,02,12,55,25.60
2016,05,02,12,56,25.60
2016,05,02,12,57,25.60
2016,05,02,12,58,25.60
2016,05,02,12,59,25.60
2016,05,02,13,00,25.70
2016,05,02,13,01,25.70
2016,05,02,13,02,25.70
2016,05,02,13,03,25.80
2016,05,02,13,04,25.80
2016,05,02,13,05,25.80
2016,05,02,13,06,25.90
2016,05,02,13,07,26.00
2016,05,02,13,08,26.00
2016,05,02,13,09,26.10
2016,05,02,13,10,26.10
2016,05,02,13,11,26.10
2016,05,02,13,12,26.10
2016,05,02,13,13,26.10
2016,05,02,13,14,26.10
2016,05,02,13,15,26.20
2016,05,02,13,16,26.10
2016,05,02,13,17,26.20
2016,05,02,13,18,26.20
2016,05,02,13,19,26.20
2016,05,02,13,20,26.20
2016,05,02,13,21,26.20
2016,05,02,13,22,26.20
2016,05,02,13,23,26.30
2016,05,02,13,24,26.30
2016,05,02,13,25,26.30
2016,05,02,13,26,26.30
2016,05,02,13,27,26.30
2016,05,02,13,28,26.40
2016,05,02,13,29,26.40
2016,05,02,13,30,26.40
2016,05,02,13,31,26.40
2016,05,02,13,32,26.40
2016,05,02,13,33,26.50
2016,05,02,13,34,26.50
2016,05,02,13,35,26.50
2016,05,02,13,36,26.60
2016,05,02,13,37,26.60
2016,05,02,13,38,26.60
2016,05,02,13,39,26.60
2016,05,02,13,40,26.60
2016,05,02,13,41,26.70
2016,05,02,13,42,26.70
2016,05,02,13,43,26.80
2016,05,02,13,44,26.80
2016,05,02,13,45,26.90
2016,05,02,13,46,27.00
2016,05,02,13,47,27.00
2016,05,02,13,48,27.10
2016,05,02,13,49,27.10
2016,05,02,13,50,27.10
2016,05,02,13,51,27.10
2016,05,02,13,52,27.10
2016,05,02,13,53,27.10
2016,05,02,13,54,27.10
2016,05,02,13,55,27.10
2016,05,02,13,56,27.10
2016,05,02,13,57,27.10
2016,05,02,13,58,27.10
2016,05,02,13,59,27.00
2016,05,02,14,00,27.00
2016,05,02,14,01,27.00
2016,05,02,14,02,26.90
2016,05,02,14,03,26.90
2016,05,02,14,04,26.80
2016,05,02,14,05,26.80
2016,05,02,14,06,26.80
2016,05,02,14,07,26.70
2016,05,02,14,08,26.70
2016,05,02,14,09,26.70
2016,05,02,14,10,26.70
2016,05,02,14,11,26.70
2016,05,02,14,12,26.70
2016,05,02,14,13,26.70
2016,05,02,14,14,26.70
2016,05,02,14,15,26.80
2016,05,02,14,16,26.80
2016,05,02,14,17,26.80
2016,05,02,14,18,26.80
2016,05,02,14,19,26.80
2016,05,02,14,20,26.90
2016,05,02,14,21,26.90
2016,05,02,14,22,26.90
2016,05,02,14,23,27.00
2016,05,02,14,24,27.00
2016,05,02,14,25,27.10
2016,05,02,14,26,27.10
2016,05,02,14,27,27.20
2016,05,02,14,28,27.20
2016,05,02,14,29,27.30
2016,05,02,14,30,27.40
2016,05,02,14,31,27.40
2016,05,02,14,32,27.50
2016,05,02,14,33,27.50
2016,05,02,14,34,27.60
2016,05,02,14,35,27.70
2016,05,02,14,36,27.70
2016,05,02,14,37,27.80
2016,05,02,14,38,27.80
2016,05,02,14,39,27.80
2016,05,02,14,40,27.80
2016,05,02,14,41,27.80
2016,05,02,14,42,27.90
2016,05,02,14,43,27.90
2016,05,02,14,44,27.90
2016,05,02,14,45,27.90
2016,05,02,14,46,27.90
2016,05,02,14,47,27.90
2016,05,02,14,48,27.90
2016,05,02,14,49,27.90
2016,05,02,14,50,27.90
2016,05,02,14,51,27.90
2016,05,02,14,52,27.90
2016,05,02,14,53,27.90
2016,05,02,14,54,28.00
2016,05,02,14,55,28.00
2016,05,02,14,56,28.10
2016,05,02,14,57,28.10
2016,05,02,14,58,28.10
2016,05,02,14,59,28.20
2016,05,02,15,00,28.20
2016,05,02,15,01,28.20
2016,05,02,15,02,28.20
2016,05,02,15,03,28.30
2016,05,02,15,04,28.30
2016,05,02,15,05,28.30
2016,05,02,15,06,28.30
2016,05,02,15,07,28.20
2016,05,02,15,08,28.20
2016,05,02,15,09,28.30
2016,05,02,15,10,28.30
2016,05,02,15,11,28.30
2016,05,02,15,12,28.30
2016,05,02,15,13,28.30
2016,05,02,15,14,28.30
2016,05,02,15,15,28.30
2016,05,02,15,16,28.30
2016,05,02,15,17,28.30
2016,05,02,15,18,28.30
2016,05,02,15,19,28.30
2016,05,02,15,20,28.30
2016,05,02,15,21,28.30
2016,05,02,15,22,28.30
2016,05,02,15,23,28.40
2016,05,02,15,24,28.40
2016,05,02,15,25,28.40
2016,05,02,15,26,28.40
2016,05,02,15,27,28.40
2016,05,02,15,28,28.40
2016,05,02,15,29,28.40
2016,05,02,15,30,28.40
2016,05,02,15,31,28.30
2016,05,02,15,32,28.30
2016,05,02,15,33,28.30
2016,05,02,15,34,28.20
2016,05,02,15,35,28.20
2016,05,02,15,36,28.20
2016,05,02,15,37,28.10
2016,05,02,15,38,28.10
2016,05,02,15,39,28.10
2016,05,02,15,40,28.10
2016,05,02,15,41,28.10
2016,05,02,15,42,28.00
2016,05,02,15,43,27.90
2016,05,02,15,44,27.60
2016,05,02,15,45,27.20
2016,05,02,15,46,26.80
2016,05,02,15,47,26.40
2016,05,02,15,48,26.00
2016,05,02,15,49,25.70
2016,05,02,15,50,25.30
2016,05,02,15,51,24.90
2016,05,02,15,52,24.50
2016,05,02,15,53,24.20
2016,05,02,15,54,23.90
2016,05,02,15,55,23.60
2016,05,02,15,56,23.40
2016,05,02,15,57,23.20
2016,05,02,15,58,23.00
2016,05,02,15,59,22.80
2016,05,02,16,00,22.60
2016,05,02,16,01,22.50
2016,05,02,16,02,22.40
2016,05,02,16,03,22.30
2016,05,02,16,04,22.30
2016,05,02,16,05,22.30
2016,05,02,16,06,22.40
2016,05,02,16,07,22.40
2016,05,02,16,08,22.50
2016,05,02,16,09,22.50
2016,05,02,16,10,22.60
2016,05,02,16,11,22.60
2016,05,02,16,12,22.70
2016,05,02,16,13,22.80
2016,05,02,16,14,22.80
2016,05,02,16,15,22.80
2016,05,02,16,16,22.80
2016,05,02,16,17,22.80
2016,05,02,16,18,22.80
2016,05,02,16,19,22.80
2016,05,02,16,20,22.70
2016,05,02,16,21,22.60
2016,05,02,16,22,22.50
2016,05,02,16,23,22.40
2016,05,02,16,24,22.30
2016,05,02,16,25,22.10
2016,05,02,16,26,22.00
2016,05,02,16,27,21.90
2016,05,02,16,28,21.80
2016,05,02,16,29,21.60
2016,05,02,16,30,21.50
2016,05,02,16,31,21.40
2016,05,02,16,32,21.40
2016,05,02,16,33,21.30
2016,05,02,16,34,21.30
2016,05,02,16,35,21.20
2016,05,02,16,36,21.20
2016,05,02,16,37,21.20
2016,05,02,16,38,21.20
2016,05,02,16,39,21.20
2016,05,02,16,40,21.20
2016,05,02,16,41,21.20
2016,05,02,16,42,21.30
2016,05,02,16,43,21.30
2016,05,02,16,44,21.40
2016,05,02,16,45,21.50
2016,05,02,16,46,21.60
2016,05,02,16,47,21.70
2016,05,02,16,48,21.80
2016,05,02,16,49,22.00
2016,05,02,16,50,22.10
2016,05,02,16,51,22.30
2016,05,02,16,52,22.50
2016,05,02,16,53,22.60
2016,05,02,16,54,22.80
2016,05,02,16,55,23.00
2016,05,02,16,56,23.10
2016,05,02,16,57,23.30
2016,05,02,16,58,23.50
2016,05,02,16,59,23.70
2016,05,02,17,00,23.80
2016,05,02,17,01,23.80
2016,05,02,17,02,23.80
2016,05,02,17,03,23.70
2016,05,02,17,04,23.60
2016,05,02,17,05,23.40
2016,05,02,17,06,23.20
2016,05,02,17,07,23.10
2016,05,02,17,08,22.90
2016,05,02,17,09,22.80
2016,05,02,17,10,22.70
2016,05,02,17,11,22.60
2016,05,02,17,12,22.50
2016,05,02,17,13,22.50
2016,05,02,17,14,22.40
2016,05,02,17,15,22.40
2016,05,02,17,16,22.40
2016,05,02,17,17,22.50
2016,05,02,17,18,22.60
2016,05,02,17,19,22.70